Вернуться в каталог

FENGYUN 1C DEB

АктивенSSO
NORAD 31804·DEBRIS·🇨🇳 China

Запущен May 10, 1999 с Taiyuan Satellite Launch Center

Loading…

Ближайшие Пролёты (ближайшие 24 часа)

TLE

УстаревающийSource: Space-Track

Эпоха: Sep 5, 2026, 05:19 UTC

1 31804U 99025CGS 26248.22192008  .00001678  00000-0  82969-3 0  9996
2 31804  98.3032  42.3981 0137730  96.6097 265.0776 14.13709747674258

Отслеживайте FENGYUN 1C DEB в реальном времени с AllMySat

Download on the App Store